Вернуться в каталог

STARLINK-35450

АктивенСвязьVLEO
NORAD 65868·PAYLOAD·🇺🇸 United States

Запущен Oct 3, 2025 с Vandenberg Space Force Base

Loading…

Ближайшие Пролёты (ближайшие 24 часа)

TLE

СвежийSource: CelesTrak SupGP

Эпоха: Sep 14, 2026, 22:39 UTC

1 65868C 25223Q   26257.94423611 -.00054292  00000+0 -16042-2 0  2574
2 65868  53.1560 131.4989 0001271  92.5750 219.1609 15.34415909    19

Отслеживайте STARLINK-35450 в реальном времени с AllMySat

Download on the App Store